Miscellaneous Local Product
Issued by NWS Hastings, NE

Home | Current Version | Previous Version | Text Only | Print | Product List | Glossary On
Versions: 1 2 3 4 5 6 7 8 9 10 11 12 13 14 15 16 17 18 19 20 21 22 23 24 25 26 27 28 29 30 31 32 33 34 35 36 37 38 39 40 41 42 43 44 45 46 47 48 49 50
938
AXUS43 KGID 240102
MISGRI

GID CWA HOURLY WEATHER ROUNDUP
NATIONAL WEATHER SERVICE HASTINGS NE
700 PM CST THU FEB 23 2017

NOTE: "FAIR" INDICATES FEW OR NO CLOUDS BELOW 12,000 FEET WITH NO
SIGNIFICANT WEATHER AND/OR OBSTRUCTIONS TO VISIBILITY.

...SOUTH CENTRAL NEBRASKA...

CITY           SKY/WX    TMP DP  RH WIND       PRES   REMARKS
GRAND ISLAND   LGT SNOW  30  30 100 NE18      29.64R FOG     WCI  18
HASTINGS       LGT SNOW  32  30  92 NE21      29.63R FOG     WCI  20
KEARNEY        CLOUDY    30  27  86 N16       29.65R WCI  19
ORD            LGT SNOW  29  26  89 N14       29.70R FOG     WCI  18
YORK           LGT SNOW  32  32 100 N20G28    29.64S WCI  20
AURORA         LGT SNOW  32  31  97 NE17G24   29.63S WCI  21
LEXINGTON      LGT SNOW  29  27  92 N13       29.70R WCI  19
HOLDREGE       LGT SNOW  31  29  94 N10       29.66R WCI  22
HEBRON         RAIN      36  34  94 N13G24    29.60R WCI  27

...NEBRASKA PANHANDLE...

CITY           SKY/WX    TMP DP  RH WIND       PRES   REMARKS
CHADRON        LGT SNOW  25  23  92 N13       29.88R VSB 1   WCI  14
ALLIANCE       LGT SNOW  22  19  89 N22       29.80R VSB 1   WCI   6
SCOTTSBLUFF    LGT SNOW  23  20  88 N7        29.85R VSB 3/4 WCI  15
SIDNEY         CLOUDY    21  18  88 N17       29.77R FOG     WCI   7

...WESTERN AND NORTH CENTRAL NEBRASKA...

CITY           SKY/WX    TMP DP  RH WIND       PRES   REMARKS
VALENTINE      FOG       25  21  85 N24G31    29.83R VSB 1/2 WCI   9
AINSWORTH      CLOUDY    26  26  98 N17G25    29.80R WCI  13
ONEILL         CLOUDY    28  28  98 NE23G30   29.75S WCI  14
BROKEN BOW     LGT SNOW  28  26  92 N15       29.69S VSB 1   WCI  16
IMPERIAL       LGT SNOW  26  23  88 N17       29.73R FOG     WCI  13
NORTH PLATTE   LGT SNOW  27  24  89 N10       29.75R VSB 3/4 WCI  17
MCCOOK         LGT SNOW  30  29  96 N13       29.71R FOG     WCI  20

...EASTERN NEBRASKA...

CITY           SKY/WX    TMP DP  RH WIND       PRES   REMARKS
NORFOLK        SNOW      30  28  92 NE16      29.72R VSB 1/2 WCI  19
SO SIOUX CITY  LGT SNOW  33  30  88 NE22G32   29.69F VSB 1   WCI  21
TEKAMAH        LGT RAIN  34  31  88 N17       29.66R WCI  23
COLUMBUS       CLOUDY    32  28  86 N15G21    29.70R WCI  22
ALBION         LGT SNOW  32  29  88 NE15G29   29.69F WCI  22
OMAHA EPPLEY   LGT RAIN  38  34  85 NE18G29   29.61S FOG     WCI  28
OFFUTT AFB     DRIZZLE   39  36  91 NE15G23   29.58R WCI  30
MILLARD        DRIZZLE   39  37  91 N3G20     29.61R
LINCOLN        MIX PCPN  37  36  96 N17       29.62R FOG     WCI  27
NEBRASKA CITY  CLOUDY    41  37  83 NE20      29.53R
BEATRICE       CLOUDY    39  38  97 N16G25    29.55R FOG     WCI  30
FALLS CITY     CLOUDY    50  41  71 E14       29.47F

...NORTHERN KANSAS...

CITY           SKY/WX    TMP DP  RH WIND       PRES   REMARKS
GOODLAND       CLOUDY    28  27  96 N20G30    29.67R WCI  15
HILL CITY      CLOUDY    34  32  92 N18G24    29.65R WCI  23
NORTON         CLOUDY    34  28  80 NW14      29.67R WCI  24
PHILLIPSBURG   CLOUDY    36  34  93 NW14      29.65R WCI  27
SMITH CENTER   MIX PCPN  32  30  93 N15G21    29.58R WCI  22
HAYS           CLOUDY    37  32  82 N20G28    29.58R WCI  27
RUSSELL        CLOUDY    37  33  85 N29G36    29.54R WCI  25
CONCORDIA      CLOUDY    39  37  92 N22G30    29.54R WCI  29
SALINA         PTCLDY    46  37  71 N25       29.47R
TOPEKA         CLEAR     54  47  77 NE14      29.40F



USA.gov is the U.S. government's official web portal to all federal, state and local government web resources and services.